Wind_Speed
18 19 20 19 19 19 19 19 17 16 17 19 20 19 19 20 18 16 16 13 10 9 9 9 6 6 7 5 5 5 3 3 6 4 4 5 6 4 2 2 2 2 2 1 2 4 6 7 4 1 1 1 2 5 7 9 12 13 13 13 12 12 12 11 10 9 9 10 9 8 9 9 8 8 6 5 7 10 12 13 14 15 12 11 13
21 21 21 20 22 22 21 21 19 18 18 20 21 19 19 19 18 16 15 12 10 11 12 10 7 5 7 5 5 5 5 6 5 2 1 2 4 3 1 1 3 3 1 1 3 4 3 4 5 3 1 0 1 3 4 6 8 11 11 11 11 11 12 11 10 10 10 10 10 9 8 9 10 10 9 8 8 8 9 10 13 16 16 14 14
23 22 22 21 22 22 23 24 22 20 20 21 21 20 19 19 19 17 14 13 12 12 13 13 11 9 9 8 7 7 8 7 2 3 5 4 3 3 3 5 6 7 7 6 3 4 6 4 5 3 2 1 2 1 1 3 5 8 10 9 10 11 12 10 10 11 10 11 11 9 8 8 7 8 10 11 12 11 9 9 9 12 14 15 15
22 19 20 20 22 23 23 24 24 23 22 22 22 21 20 19 19 18 15 14 13 12 12 11 12 11 11 12 10 6 7 6 1 4 6 6 6 6 6 7 6 6 8 7 5 4 7 6 4 3 1 2 3 5 5 2 1 3 6 7 8 9 10 10 11 11 11 11 9 7 8 7 4 4 6 7 8 10 10 10 10 10 10 12 14
21 19 20 20 23 25 24 23 24 25 25 24 24 23 22 20 19 19 17 16 14 13 11 9 10 9 8 11 9 6 7 6 5 6 7 6 6 7 7 6 5 6 7 5 5 6 6 9 7 5 4 5 6 7 8 8 7 4 1 4 5 6 8 8 10 11 9 10 9 8 7 6 5 6 5 4 4 6 9 10 9 9 9 10 12
23 23 24 23 23 23 24 24 23 25 27 25 24 23 22 21 20 19 17 16 15 13 11 10 10 8 7 10 10 9 10 9 6 7 7 4 4 6 7 6 7 6 5 4 6 7 6 9 9 4 2 3 5 5 7 10 10 7 5 3 2 3 6 7 7 8 7 9 11 9 7 5 5 5 4 4 5 6 7 7 7 8 8 7 7
22 22 25 25 24 22 24 25 24 25 27 26 26 24 23 23 21 20 19 17 16 14 12 11 11 10 10 11 11 11 11 9 7 6 6 4 4 6 7 8 9 8 9 8 7 7 6 8 10 7 5 4 4 4 6 8 8 7 9 9 6 4 4 5 5 5 6 8 10 10 8 6 5 4 4 4 5 5 6 6 7 8 8 8 6
25 22 24 23 23 23 25 26 26 27 27 27 28 26 25 24 23 21 19 18 17 15 14 13 11 11 12 13 12 11 11 10 8 6 5 4 6 7 7 7 8 8 9 9 7 7 7 8 10 9 8 7 3 2 5 5 3 4 6 7 7 8 6 4 3 4 6 6 6 7 7 4 3 4 5 5 6 7 8 8 8 9 10 10 9
24 25 27 24 22 23 26 26 26 29 29 27 29 28 26 26 24 22 20 19 17 16 15 14 12 12 14 15 13 11 11 9 8 6 4 4 5 7 5 3 6 6 7 8 7 8 8 8 9 10 10 8 3 1 3 4 2 3 5 5 5 6 7 8 8 5 4 3 2 2 2 0 2 4 5 5 5 7 9 8 7 7 8 7 8
11 17 23 24 24 26 29 29 28 31 30 27 26 28 28 27 26 24 22 20 18 16 16 15 14 14 15 17 15 13 11 10 9 7 5 5 4 5 4 3 5 5 7 8 8 8 9 8 8 9 9 8 6 7 8 8 8 8 7 7 7 6 7 10 8 4 4 6 6 4 2 1 1 1 1 1 2 3 5 6 6 7 9 8 9
3 6 12 18 23 25 29 30 28 28 29 26 25 28 30 29 27 25 23 22 19 18 17 16 15 15 16 18 16 14 12 12 10 8 7 6 4 4 4 3 3 4 5 6 7 9 9 9 9 8 8 8 8 9 9 10 11 11 11 10 9 9 9 9 7 4 5 7 8 7 5 5 5 3 2 3 2 1 3 3 3 5 8 9 9
3 2 3 7 12 16 21 23 22 22 25 27 26 27 29 30 29 27 25 23 21 19 19 17 16 16 17 19 18 14 14 14 11 8 8 7 6 5 4 2 1 3 5 5 6 7 8 8 9 8 8 8 8 8 8 9 9 9 10 10 10 10 10 9 7 7 8 7 7 7 6 5 5 5 5 5 5 5 5 5 4 5 8 7 6
3 2 7 6 4 8 13 16 18 19 22 26 26 24 26 29 29 28 27 26 23 21 20 19 18 16 17 20 19 16 15 15 12 10 9 8 6 6 5 3 1 3 4 5 5 5 6 7 8 8 7 7 7 7 7 8 8 8 8 8 8 8 8 8 8 7 8 8 7 7 5 4 4 3 3 2 3 4 4 3 4 4 6 7 5
4 7 8 5 3 3 8 12 16 19 21 23 23 22 22 25 27 28 27 27 25 23 22 21 20 18 17 20 21 18 17 16 13 11 10 8 7 7 6 4 3 1 3 5 4 4 5 5 6 7 6 7 7 7 7 7 7 6 7 8 8 8 8 7 7 7 6 6 6 7 5 3 3 3 3 3 2 0 2 2 3 3 2 3 3
9 9 8 6 6 4 5 7 11 17 20 21 20 19 20 22 25 26 26 26 26 25 23 22 21 19 18 20 21 19 17 17 14 11 11 10 9 8 7 6 6 4 2 3 4 4 4 4 4 4 5 5 5 5 5 5 4 4 6 7 7 7 7 7 7 7 7 6 5 6 5 3 3 4 3 3 1 2 0 1 2 1 2 2 2
10 10 9 8 8 6 5 6 7 10 15 17 18 18 18 19 23 25 26 25 25 25 24 23 22 21 19 20 21 19 17 17 15 12 11 11 10 9 8 8 7 7 5 2 2 3 4 4 3 3 3 3 4 4 4 4 3 3 4 5 6 6 6 7 8 7 8 8 7 6 4 4 5 5 5 5 4 4 3 2 2 2 4 4 3
10 10 10 10 10 9 7 6 5 7 9 12 14 15 15 17 20 24 25 24 23 24 24 24 23 22 20 20 20 18 15 15 15 13 11 11 11 10 9 9 8 8 9 5 2 3 4 4 4 3 2 2 2 2 2 2 2 2 3 3 4 5 5 6 6 7 7 7 7 6 6 6 7 6 6 7 6 6 5 4 4 4 4 4 4
11 10 12 11 11 9 9 7 5 6 6 8 10 12 14 15 17 22 25 23 21 21 22 23 23 23 21 20 20 18 15 13 13 12 11 11 11 11 10 10 9 9 11 9 6 6 6 6 6 5 3 2 1 0 0 1 0 1 2 2 2 3 4 5 4 5 6 6 6 6 5 6 5 5 5 6 6 6 6 5 5 5 5 5 6
11 11 12 12 12 11 10 9 7 6 6 7 9 10 12 13 14 18 22 22 20 19 19 21 22 21 20 20 20 18 17 14 12 12 10 10 11 11 10 10 11 10 11 12 10 9 8 8 8 8 7 6 5 4 2 2 2 1 1 1 1 2 2 3 4 4 4 4 5 5 4 6 6 5 5 5 6 6 7 6 4 3 4 6 7
12 12 12 12 13 13 12 11 10 9 7 7 8 9 10 12 13 15 18 19 20 18 16 16 18 18 18 18 18 17 16 14 14 14 12 10 10 11 10 10 11 11 12 13 13 11 11 10 10 10 10 10 9 8 6 5 5 4 3 3 1 1 2 1 2 2 2 2 3 3 4 5 6 6 6 6 6 7 9 10 10 8 6 6 8
14 13 12 12 12 13 14 13 11 12 11 9 9 10 10 11 13 15 15 15 16 15 14 13 14 14 14 15 15 15 14 14 15 16 15 12 11 12 11 10 11 12 13 14 15 14 13 12 12 12 13 13 12 11 10 9 9 8 6 6 4 3 4 4 2 2 2 2 2 3 3 3 5 6 6 6 5 5 7 8 10 10 8 7 7
15 14 14 13 13 13 13 12 12 14 15 13 13 13 13 14 14 15 15 13 12 12 12 12 13 15 15 15 15 15 15 16 16 16 16 15 13 12 12 12 14 13 12 14 16 15 15 15 15 15 15 15 15 14 14 12 12 12 10 10 9 6 6 6 5 5 6 4 2 2 4 5 5 6 6 6 5 2 3 3 3 5 5 6 8
15 15 15 14 14 14 13 12 12 13 13 12 13 15 15 17 18 19 19 17 16 15 15 14 14 16 17 18 18 18 18 19 18 17 16 16 16 15 15 16 16 15 14 14 15 15 16 17 18 17 17 17 17 17 17 16 15 14 14 13 12 10 9 9 9 8 8 8 6 4 5 7 7 7 8 8 7 5 4 4 4 5 7 8 9
15 15 15 15 15 14 14 14 13 12 11 10 10 12 13 15 17 20 22 22 20 20 19 17 14 12 13 16 19 20 21 21 20 20 19 18 19 17 16 17 17 17 18 18 16 16 18 19 19 19 19 19 19 19 18 19 17 16 16 16 15 13 12 12 12 10 8 9 10 8 8 9 9 9 9 9 8 8 7 7 8 8 8 8 9
14 14 14 14 14 14 14 14 14 14 13 13 12 12 11 11 11 12 15 19 20 19 17 16 14 12 12 12 13 14 17 19 21 22 21 20 19 16 16 18 19 19 18 19 20 20 20 20 21 22 22 21 21 20 19 20 19 17 18 18 17 16 14 14 14 12 11 11 12 11 9 10 10 10 10 10 9 9 10 11 11 12 11 11 11
13 13 13 13 12 13 13 13 14 14 14 14 14 14 13 12 11 10 10 11 14 14 12 11 10 11 11 10 9 10 11 14 16 17 17 19 20 21 22 24 25 25 22 21 24 25 22 22 22 23 24 24 23 22 20 20 19 18 18 20 20 18 17 16 15 14 14 14 13 12 11 11 11 11 12 12 11 12 12 13 14 15 15 15 15
12 12 12 12 13 12 12 12 12 13 13 13 13 13 13 14 13 13 13 12 10 8 8 8 8 8 9 9 8 9 9 9 10 12 14 16 19 22 24 25 27 29 26 23 25 28 26 24 24 24 25 25 25 23 21 21 21 20 20 21 21 20 19 18 17 17 17 16 15 14 13 13 12 12 13 13 13 13 14 15 15 16 17 17 17
11 11 11 12 13 12 12 12 11 12 12 12 12 12 12 12 12 11 12 13 13 10 9 8 8 8 7 6 5 6 5 4 4 5 7 9 12 15 16 18 21 23 24 23 23 25 25 24 25 27 28 28 27 26 24 23 23 22 23 24 23 22 22 20 19 19 18 17 16 15 14 14 14 14 14 14 14 15 15 16 17 17 18 18 18
10 12 11 11 12 12 12 12 11 11 10 10 10 10 10 10 10 10 9 9 11 10 9 8 7 6 6 5 3 1 1 1 1 0 2 4 6 7 8 10 13 15 18 20 21 22 23 22 24 26 28 30 30 29 28 26 24 25 26 27 25 23 23 21 21 20 18 18 17 16 15 15 15 15 14 15 15 16 17 17 18 19 20 19 19
11 11 10 9 10 10 11 11 11 11 10 9 9 9 9 9 8 8 7 6 6 7 8 7 5 3 3 3 1 0 1 0 0 1 2 3 4 5 6 7 9 11 13 15 16 19 21 22 23 25 27 31 32 31 30 29 27 26 28 29 26 25 24 22 21 20 19 19 18 17 16 16 16 15 15 16 17 17 18 18 20 20 20 19 19
12 11 9 7 7 8 9 10 10 10 10 10 9 8 8 8 7 7 7 6 4 4 5 6 4 2 2 2 1 1 1 1 2 2 3 4 4 5 6 7 8 10 11 12 14 15 17 19 22 24 26 28 30 30 30 29 27 27 30 32 30 26 24 22 22 21 20 19 18 16 17 17 17 16 17 18 18 18 19 20 21 22 22 21 22
13 12 12 10 7 6 7 7 7 7 7 8 8 7 8 8 7 6 6 4 2 3 4 4 3 2 2 1 2 2 1 2 3 4 4 5 5 6 7 7 8 10 10 12 13 15 16 18 20 22 23 24 26 28 28 27 27 27 30 34 32 28 24 22 22 20 19 18 17 16 17 18 18 18 19 19 20 20 20 21 22 23 23 23 24
17 13 12 12 10 7 5 4 4 4 5 7 6 6 7 7 5 5 4 3 2 3 3 3 2 2 2 2 3 2 3 3 4 4 5 6 7 6 7 8 9 10 11 12 14 15 17 18 19 20 21 22 23 25 26 26 27 28 30 33 32 29 25 23 22 20 19 17 17 17 16 17 18 19 19 19 19 19 19 21 22 23 24 25 25
13 14 14 12 11 9 5 2 1 2 3 4 4 4 5 4 4 5 4 3 3 3 3 3 2 2 2 2 3 3 4 5 6 6 6 7 7 7 8 9 9 10 11 13 15 16 17 18 19 19 20 21 22 22 22 24 28 30 31 32 31 28 25 23 21 20 20 19 18 18 17 17 18 18 19 18 17 17 18 21 22 24 26 26 26
7 9 9 10 12 9 4 0 1 2 4 4 3 3 3 3 4 5 4 4 3 3 4 3 3 3 2 3 3 4 5 6 7 6 7 7 8 8 9 9 10 11 12 13 14 16 16 17 18 19 19 21 22 21 19 22 26 28 30 30 30 28 25 22 21 21 21 21 21 20 20 19 19 19 20 19 18 19 21 23 25 26 27 27 27
6 5 5 11 9 4 1 2 4 5 6 5 4 3 3 4 4 4 4 4 4 4 5 4 5 4 4 4 4 5 6 7 7 7 7 7 8 9 9 10 11 12 13 14 14 15 16 16 17 18 19 21 22 21 20 21 23 26 27 27 27 28 27 24 23 23 23 22 21 20 20 20 20 21 21 20 20 22 24 26 27 28 29 29 29
2 2 4 4 3 5 5 4 4 6 7 7 6 5 5 5 5 6 6 6 6 6 6 6 6 6 5 5 6 7 8 8 8 8 8 8 9 10 11 11 12 13 14 14 14 15 16 17 17 17 20 21 21 21 21 22 23 25 26 25 25 28 29 27 25 23 22 20 19 18 19 20 19 19 20 21 23 25 26 27 28 29 31 32 33
8 6 0 4 6 7 6 5 5 7 9 9 9 8 7 7 7 7 7 8 8 9 8 8 7 7 7 7 7 8 9 9 10 11 11 12 12 13 13 13 13 14 14 15 15 15 15 16 17 19 21 22 21 21 22 23 23 24 25 25 25 27 29 28 25 22 19 18 16 15 16 17 18 20 22 23 25 26 27 28 29 31 33 34 35
3 2 3 5 6 7 7 7 10 12 12 11 11 10 9 10 10 9 10 10 10 10 10 10 10 10 9 9 9 10 11 12 12 13 13 13 13 13 14 14 14 14 15 15 15 15 15 17 19 22 23 22 21 21 22 22 22 23 24 25 25 26 26 24 21 17 14 12 11 12 14 16 19 22 23 24 25 26 27 28 30 33 35 36 36
7 8 8 8 8 9 9 11 13 13 12 12 13 13 13 13 12 12 12 12 12 13 13 13 13 13 12 12 12 12 12 13 13 13 13 13 13 14 14 14 15 15 15 15 15 15 17 20 22 23 23 21 20 20 20 21 22 22 22 23 24 23 21 18 17 15 14 13 12 14 17 19 20 22 23 24 26 27 29 31 32 34 36 37 38
11 13 14 13 12 12 14 15 16 15 15 15 15 15 15 15 15 15 15 15 14 14 14 15 15 15 15 14 14 13 14 14 14 15 15 16 16 16 16 16 16 15 15 17 18 19 21 22 22 23 22 20 18 17 18 19 21 22 22 24 24 23 20 19 18 17 17 17 16 16 18 19 19 22 24 25 28 30 31 33 34 35 37 38 39
15 17 17 16 16 18 19 19 19 18 17 16 17 18 17 16 17 17 16 16 16 16 16 16 17 17 17 16 16 16 16 16 17 18 19 19 19 18 17 16 15 15 16 19 21 22 23 24 23 22 21 19 16 16 17 19 21 23 23 24 24 22 20 19 18 17 17 17 16 16 18 20 21 24 26 27 29 31 32 34 35 35 35 35 35
18 18 18 18 19 21 21 21 21 20 19 18 19 19 19 19 19 19 18 18 18 18 18 18 18 19 18 18 18 18 18 19 19 20 20 20 19 17 16 15 15 15 17 19 21 21 22 22 22 21 20 17 16 17 18 19 21 22 23 22 22 20 18 17 16 16 16 16 15 14 18 22 23 24 26 27 29 31 31 31 31 29 28 28 27
20 20 20 21 22 23 24 24 24 23 22 22 21 21 21 20 20 20 19 19 19 19 20 20 21 21 21 21 20 20 20 19 19 19 19 19 18 16 15 15 15 17 17 17 19 19 19 19 20 20 18 17 17 18 18 19 20 20 20 18 17 15 14 14 15 15 15 15 14 15 19 22 23 23 25 26 27 27 26 25 24 23 23 22 22
23 23 22 23 24 25 26 26 25 23 22 22 22 23 24 23 22 21 21 21 22 22 22 22 22 22 22 21 21 20 19 19 18 18 17 17 17 16 16 16 17 18 17 16 16 17 18 18 19 20 19 19 18 18 19 20 19 17 15 13 12 12 12 12 13 13 14 15 17 18 20 20 21 22 23 22 22 21 21 21 21 20 20 19 19
26 25 25 25 26 26 27 26 25 24 22 22 22 23 25 25 24 23 23 23 22 23 23 23 22 22 21 21 20 20 19 18 17 17 17 17 16 17 18 18 18 16 15 15 15 16 17 18 18 19 20 19 19 20 19 17 14 12 10 10 9 9 9 10 11 13 15 16 17 18 18 19 20 20 18 18 19 19 19 20 20 18 17 18 19
26 26 26 25 25 25 25 24 24 23 23 23 24 24 25 24 24 24 24 24 23 24 24 23 23 22 21 21 21 20 19 19 18 18 17 16 17 19 20 19 18 17 16 16 16 17 17 17 17 18 19 20 20 19 15 12 11 10 10 9 9 8 9 10 11 12 13 14 15 17 18 18 17 15 15 16 18 18 18 19 19 17 16 17 18
25 24 24 24 23 24 24 24 25 24 23 23 24 24 24 24 24 24 24 25 26 25 25 24 23 23 23 22 21 21 20 20 20 19 18 18 19 20 18 16 17 18 18 17 17 17 16 16 18 20 20 20 19 15 13 12 10 9 9 7 6 6 8 9 10 12 12 14 15 16 14 12 11 12 14 15 16 16 17 18 19 18 17 18 18
24 23 24 24 24 24 24 24 25 24 24 24 25 25 24 24 24 24 24 25 27 27 27 26 25 25 25 24 23 23 21 19 19 20 20 20 21 20 17 15 17 18 15 14 16 17 16 17 19 20 20 20 18 14 12 10 8 7 7 6 6 6 7 9 11 13 13 14 13 11 9 10 11 13 16 17 17 17 18 19 19 19 20 21 21
25 24 22 21 21 22 23 24 24 23 23 24 24 24 24 24 23 23 24 25 26 27 27 27 26 26 26 25 24 24 22 21 22 22 21 21 21 21 19 18 17 14 10 11 14 17 19 20 20 19 18 16 14 12 11 9 7 7 7 6 5 6 6 7 8 10 11 11 8 6 9 12 14 16 17 17 18 18 19 20 20 21 22 23 23
22 21 20 19 19 20 21 22 23 23 23 23 24 24 23 23 23 23 24 25 26 26 27 27 26 25 25 23 23 23 22 22 23 23 21 20 20 19 16 13 12 9 10 14 16 17 18 19 19 18 16 14 12 12 11 9 7 5 3 3 4 5 5 5 8 12 12 9 7 10 11 14 16 17 17 17 18 20 21 22 23 23 23 24 24
Wind_Direction
176 173 177 176 171 173 173 171 173 174 179 175 163 166 176 170 164 161 157 155 150 136 107 97 100 92 100 114 114 97 52 95 119 133 157 147 139 138 135 199 247 150 141 163 80 31 360 346 341 337 269 250 222 232 226 220 223 227 232 231 226 228 234 232 231 232 224 224 229 241 257 259 258 249 229 230 237 229 229 231 222 215 218 225 230
173 169 174 179 175 177 178 173 175 181 186 181 170 170 178 174 170 166 162 161 156 140 127 130 140 121 113 119 114 101 95 108 109 101 101 148 170 196 233 77 32 31 32 185 126 91 66 12 331 288 204 77 258 259 244 227 228 231 235 237 234 235 237 233 228 229 231 234 231 229 246 261 262 255 245 243 246 244 248 248 235 225 226 229 228
174 174 176 180 176 182 185 178 180 188 192 186 176 173 175 176 175 169 164 163 157 150 148 151 157 149 133 136 147 148 146 146 125 76 80 62 72 48 46 87 68 47 39 33 63 103 111 79 347 296 207 87 41 5 273 226 228 229 232 234 231 234 239 238 231 232 238 240 236 234 247 260 261 257 253 252 255 257 259 261 253 243 241 243 242
180 183 181 182 182 190 191 186 187 191 197 191 180 177 174 176 179 172 167 166 161 161 162 161 162 162 159 161 167 168 165 176 180 89 86 63 65 66 74 98 98 97 84 56 49 85 117 109 36 344 34 72 55 40 32 33 319 248 237 233 225 222 231 238 233 232 236 235 229 224 235 246 239 233 237 241 257 262 256 254 257 263 265 262 261
185 190 186 186 190 199 197 192 192 194 201 196 185 181 175 177 181 174 172 170 168 170 164 158 162 166 173 173 169 148 131 131 106 83 79 68 67 70 73 83 83 102 110 93 77 78 102 108 78 21 38 64 52 37 30 33 30 16 303 225 217 207 213 222 221 221 227 226 216 209 221 226 211 213 226 236 254 258 250 250 257 266 274 271 266
178 181 181 183 189 202 204 200 198 200 206 202 190 185 178 179 183 177 175 175 175 175 163 157 161 162 167 163 153 131 114 116 111 94 100 99 71 68 69 72 70 76 88 94 101 96 94 106 102 62 34 97 88 71 57 49 43 40 50 66 108 170 195 200 204 207 210 211 207 206 210 206 204 212 228 250 260 257 247 254 267 271 278 281 268
170 175 180 184 188 198 206 205 203 205 211 207 196 189 182 181 185 181 179 180 180 177 167 164 162 155 152 143 135 126 125 142 151 133 139 139 89 73 61 60 62 58 62 67 83 102 117 132 124 96 58 84 103 114 109 85 71 68 60 51 56 84 153 176 178 181 188 200 204 210 218 217 214 224 235 246 261 264 251 258 272 273 276 279 272
170 178 184 193 201 203 207 210 209 209 215 213 202 193 186 184 187 184 182 184 184 178 170 169 166 154 145 137 135 141 151 164 165 154 153 127 88 76 62 58 63 56 60 69 68 77 101 126 127 111 86 84 98 187 166 149 138 111 88 68 66 77 90 103 105 130 159 180 194 203 214 222 225 244 262 266 274 281 279 275 275 274 275 276 272
174 178 182 196 213 217 216 215 211 209 211 213 206 197 189 187 188 186 185 188 186 181 176 173 170 155 144 142 148 165 174 171 167 166 153 126 104 102 100 68 69 65 59 71 70 66 82 105 122 125 113 104 107 135 139 147 138 125 128 121 111 107 99 89 80 85 131 131 117 148 157 231 270 268 282 295 298 297 302 306 302 297 296 295 289
173 180 185 191 200 205 208 207 204 204 206 211 209 201 193 189 189 187 188 192 188 184 180 177 173 159 148 147 158 183 183 166 170 173 159 148 129 124 128 74 64 67 59 63 64 63 72 85 103 120 119 107 86 75 80 88 89 91 102 111 119 131 128 120 115 116 140 127 108 106 117 148 221 291 303 323 344 325 316 325 333 330 326 322 314
215 209 194 186 189 192 198 201 200 201 205 210 210 204 197 192 191 187 189 194 190 186 184 182 176 164 153 152 168 191 180 166 180 181 169 170 150 127 123 98 71 59 61 66 62 64 68 74 85 98 106 101 93 86 79 81 86 88 90 92 97 107 117 133 145 132 122 140 149 150 156 163 158 145 162 181 174 240 280 281 292 319 320 316 322
256 265 108 150 181 191 197 202 205 204 204 207 208 206 199 196 194 188 189 196 195 188 186 186 181 170 160 158 173 193 180 174 189 185 176 181 162 146 147 148 93 54 61 67 66 70 68 70 77 80 85 91 93 91 85 85 85 87 93 95 97 103 107 117 128 116 110 125 142 146 153 167 177 194 215 222 229 243 261 270 272 307 310 287 292
235 87 72 88 162 201 209 214 217 212 206 205 206 206 201 198 196 190 189 197 199 192 188 189 185 177 168 165 176 191 184 182 192 187 183 185 170 164 172 180 114 51 58 66 66 73 75 73 76 76 76 76 76 77 77 80 77 73 82 87 87 91 95 98 100 105 111 115 118 121 132 142 148 175 201 202 232 239 233 234 240 271 291 275 274
50 65 67 76 108 187 209 215 217 207 202 203 204 205 202 199 198 192 189 196 202 196 189 190 189 183 177 173 179 189 186 185 194 195 188 183 181 179 180 197 220 324 41 67 62 62 77 80 78 80 82 79 77 71 66 71 70 61 61 65 67 68 72 76 77 81 87 98 109 104 94 88 94 101 108 104 74 245 184 207 244 243 275 310 331
64 71 71 73 83 106 163 187 203 198 196 200 202 205 203 201 201 195 190 195 201 198 191 192 191 187 185 181 183 191 191 187 189 197 191 181 191 193 180 199 230 257 312 53 57 46 61 74 76 82 85 83 87 85 78 79 75 59 52 55 58 58 59 62 64 66 65 63 77 87 73 38 49 76 77 84 57 354 39 272 306 327 345 357 344
75 74 71 69 75 81 116 146 169 182 190 195 199 206 206 205 203 197 194 194 198 198 194 195 194 190 190 188 188 192 195 190 185 198 203 184 193 208 189 193 224 248 268 318 42 22 27 46 56 74 85 82 86 88 87 89 76 60 55 52 56 55 54 58 61 64 67 66 63 64 60 41 39 43 30 30 25 4 5 0 6 0 331 336 343
77 73 71 70 75 78 92 121 146 160 180 193 199 207 210 210 205 197 195 194 194 197 196 196 196 194 193 191 189 189 195 196 184 192 213 196 194 213 203 192 212 241 260 277 314 330 350 0 0 27 64 70 80 88 83 90 84 60 62 51 52 54 51 55 61 63 69 74 73 67 66 58 43 34 29 26 24 14 8 8 18 12 335 328 324
91 85 78 75 79 85 89 99 123 146 166 183 193 204 207 210 207 198 195 192 190 192 194 195 195 196 196 193 189 186 187 195 187 189 218 216 200 208 210 201 206 228 250 268 285 298 314 325 328 338 345 347 1 308 14 63 314 55 74 51 45 51 52 58 57 58 64 71 76 77 79 75 52 40 49 39 30 31 26 18 7 357 338 325 314
101 93 87 84 85 89 94 97 109 135 157 167 179 198 200 198 203 202 197 192 188 185 187 192 193 194 197 195 192 187 183 187 185 184 207 219 207 207 213 213 209 215 238 260 273 284 296 305 309 314 319 318 315 308 305 300 285 291 326 345 53 40 28 54 57 51 56 59 67 72 71 64 43 35 46 31 25 34 36 32 17 354 324 312 316
104 99 95 90 89 92 98 99 102 114 133 153 165 179 184 182 189 196 196 192 189 183 177 181 187 189 193 194 194 192 188 189 188 185 191 204 206 206 211 222 225 220 228 249 265 272 278 287 291 295 301 302 302 303 302 300 287 280 289 287 257 334 331 17 77 60 41 37 46 55 67 64 39 30 31 16 13 14 11 15 13 8 1 335 328
104 106 102 97 99 99 100 106 114 118 118 127 141 150 160 167 173 178 186 192 192 185 177 176 181 183 186 189 192 194 193 196 200 197 196 202 212 217 217 225 239 241 238 244 256 263 265 272 278 280 284 287 289 289 289 291 285 281 283 278 277 293 299 299 309 334 339 344 6 10 18 41 35 29 23 15 18 0 341 354 358 352 354 342 321
107 108 105 103 107 106 106 113 129 134 126 126 139 143 145 152 157 160 166 174 178 179 181 182 183 184 184 186 191 196 199 203 207 208 209 212 218 227 229 228 234 246 252 251 258 263 257 257 265 269 271 274 278 280 279 278 276 277 278 276 279 285 280 280 290 303 306 304 316 336 324 336 357 5 6 8 17 0 308 329 328 303 298 297 292
109 109 108 109 108 109 111 111 122 137 135 137 151 150 142 142 146 152 157 160 164 171 176 182 192 196 194 198 208 217 220 219 218 218 217 217 219 226 235 237 235 236 240 244 257 267 262 258 259 258 256 259 264 270 274 273 270 269 270 271 276 277 270 267 275 286 290 290 295 304 304 313 328 337 345 353 357 358 354 339 314 299 299 300 301
115 114 114 116 114 112 112 108 110 119 116 117 139 151 151 149 146 150 156 159 162 170 174 179 193 200 198 209 224 232 235 235 231 225 220 219 224 226 234 245 249 245 241 241 243 249 255 258 256 251 248 248 251 256 261 266 267 264 263 265 268 269 265 266 273 276 268 270 283 294 299 304 313 320 327 334 337 339 338 325 316 313 309 301 297
123 123 121 120 120 118 116 115 115 115 113 109 115 130 144 151 149 149 156 160 160 162 165 170 181 188 191 203 215 222 231 236 236 234 233 235 237 234 236 245 250 250 249 249 249 248 247 247 249 251 249 245 245 246 248 254 258 255 252 256 262 265 264 265 269 265 254 256 271 283 287 292 300 306 309 314 319 320 320 319 319 320 316 308 299
128 126 124 122 120 118 118 120 119 118 119 117 115 116 118 120 119 120 133 152 160 159 158 160 167 180 191 199 200 201 213 226 231 232 236 242 248 250 249 248 247 249 251 255 261 260 252 244 243 248 250 246 243 243 243 246 249 247 243 246 253 259 261 262 262 256 252 254 263 273 277 280 289 297 299 303 308 310 314 319 321 322 320 316 311
135 127 125 122 117 116 116 117 119 119 119 117 117 116 114 112 110 111 114 118 127 135 136 137 142 162 185 200 207 206 207 215 221 223 226 233 241 248 251 248 246 249 250 253 259 259 256 254 250 248 248 247 244 243 243 244 246 246 242 242 247 252 256 258 257 252 253 258 261 265 270 276 283 288 293 298 302 306 311 316 318 318 317 314 311
145 138 138 130 123 124 121 119 120 120 119 118 117 115 113 113 111 113 117 116 115 110 105 112 122 138 156 170 192 206 213 221 223 227 238 243 242 244 249 249 248 248 245 246 254 254 254 258 257 250 248 247 247 246 243 243 246 246 245 244 244 247 250 253 252 249 251 257 262 265 268 273 279 285 291 296 299 303 307 311 312 312 311 309 307
159 150 149 141 136 136 133 132 129 125 125 124 123 125 122 118 113 110 114 119 122 119 113 112 116 127 135 136 156 185 63 46 61 146 261 280 277 270 270 263 256 253 249 250 256 254 250 253 253 250 249 248 249 247 243 243 245 244 245 246 244 244 246 246 246 247 248 252 260 266 267 272 281 288 293 295 296 299 302 305 308 307 307 307 306
172 157 154 151 147 143 136 137 137 135 136 131 128 132 128 123 119 112 107 110 119 124 122 119 123 138 132 121 137 191 66 126 236 223 227 242 264 278 284 280 274 271 266 264 262 255 253 252 248 246 247 247 247 247 247 247 245 240 241 244 244 241 241 242 243 245 248 254 261 266 269 275 284 289 292 294 295 296 299 302 304 304 305 305 305
192 169 169 164 159 159 149 144 141 140 142 139 136 137 134 130 125 118 117 122 126 127 123 124 133 134 97 93 145 201 280 264 246 247 251 247 242 246 254 264 274 278 278 278 272 263 260 259 254 249 250 250 250 251 252 250 244 237 237 241 242 240 238 239 243 246 252 259 264 268 274 280 285 288 291 294 294 295 297 299 300 301 303 306 308
230 202 190 181 175 174 155 145 150 151 151 150 147 149 148 146 143 141 146 153 145 126 124 136 145 135 131 167 193 211 256 264 252 249 254 251 244 246 249 253 260 267 271 274 274 269 265 263 260 257 255 254 254 253 251 247 239 234 236 239 238 237 237 237 240 246 252 259 266 271 275 279 283 289 294 296 296 297 298 299 300 302 305 308 309
249 237 212 193 184 177 159 152 156 153 156 156 155 162 162 158 158 162 167 162 137 134 148 162 166 163 187 211 220 228 235 240 248 256 258 257 258 263 264 261 259 259 259 259 261 262 263 263 263 261 258 258 259 257 252 244 236 233 237 239 237 235 237 237 238 244 247 251 261 266 266 271 280 289 295 298 299 301 302 301 302 303 305 306 306
245 238 224 196 165 147 140 164 164 166 191 179 165 176 182 182 172 168 175 171 160 172 185 184 191 196 210 239 251 249 239 237 248 261 269 274 276 275 270 267 266 265 263 262 262 260 259 261 263 261 258 259 261 259 252 244 240 239 240 240 237 236 238 239 240 244 246 246 251 254 255 263 275 285 290 292 292 293 295 295 296 298 301 303 304
257 243 213 161 140 133 123 251 248 265 272 254 225 201 196 202 188 181 196 202 195 203 208 210 220 221 233 263 267 259 253 256 270 283 288 289 288 285 282 279 276 273 268 266 266 265 264 262 261 261 260 257 257 257 251 242 242 241 239 237 237 239 240 238 236 239 243 245 250 255 261 270 278 284 285 283 284 286 290 291 292 294 298 300 301
252 242 142 121 124 137 153 260 264 279 288 273 244 224 215 217 213 214 229 230 222 224 228 233 235 237 252 260 255 255 257 264 275 280 282 285 285 283 283 280 277 276 271 267 265 266 268 267 265 264 263 258 255 256 253 245 241 240 237 236 239 240 237 234 233 237 243 250 257 264 272 280 285 287 285 285 288 291 292 291 292 296 300 301 302
69 197 170 168 242 273 259 257 273 277 276 275 276 272 261 246 242 244 246 243 241 244 247 246 240 243 255 256 253 258 262 266 271 272 276 279 278 278 278 276 275 274 272 272 269 267 266 267 267 266 264 262 257 255 255 251 245 242 238 237 240 240 237 236 238 241 247 256 264 272 280 285 288 285 282 285 289 290 291 293 295 299 301 301 303
40 37 347 238 264 273 255 256 286 288 283 283 280 275 268 261 258 258 256 254 255 255 253 252 252 255 257 253 252 256 258 261 263 268 273 274 276 281 283 280 276 272 270 270 269 268 268 265 263 259 259 262 260 256 254 251 244 240 238 238 240 239 236 237 241 246 254 264 271 277 282 285 284 282 283 287 291 292 294 295 296 297 297 298 301
336 323 257 242 260 271 270 278 284 283 282 279 274 272 271 268 265 265 262 260 258 256 256 257 260 261 258 255 255 255 256 258 258 261 267 269 273 280 284 282 278 272 269 269 269 269 266 260 256 254 256 260 260 256 253 248 240 235 235 238 240 237 235 239 244 248 253 260 265 268 270 273 277 281 286 289 290 290 290 290 291 292 293 295 297
301 285 282 284 280 276 281 285 284 282 278 274 273 273 272 270 268 264 262 261 260 258 259 260 260 260 261 260 259 259 260 263 262 261 263 264 268 274 277 275 271 266 264 265 265 262 258 255 254 255 258 262 260 257 253 245 237 233 233 235 235 230 227 229 231 230 230 235 244 255 263 270 276 280 283 284 284 285 285 286 288 289 291 293 294
289 292 302 309 301 289 286 282 280 280 277 274 273 271 268 267 266 264 263 263 263 261 261 261 261 260 260 259 259 260 261 260 260 261 262 263 267 272 273 269 266 264 261 257 253 250 250 252 256 259 260 260 259 260 256 245 235 231 232 233 229 221 218 219 223 229 237 243 250 259 267 273 275 274 276 277 280 282 283 285 287 288 289 291 292
286 290 297 299 291 284 280 277 275 275 273 273 274 271 270 268 265 264 263 263 263 262 261 262 262 261 260 260 260 259 258 258 260 261 263 266 270 271 270 266 262 259 255 253 250 248 249 252 256 259 260 258 257 259 255 245 236 229 227 228 223 219 221 227 234 243 251 257 262 264 268 270 270 272 275 278 281 283 285 287 288 289 290 290 291
282 282 285 286 284 281 279 280 283 284 283 282 278 273 271 270 267 266 265 264 263 262 261 261 261 261 262 261 261 260 260 261 263 263 264 267 270 270 268 263 256 251 250 252 251 248 248 251 254 256 256 254 257 258 252 244 237 228 223 222 220 221 229 239 247 254 261 266 268 265 266 270 274 278 282 284 286 288 289 290 291 293 294 296 296
280 277 278 280 281 281 281 282 282 281 279 278 276 275 274 272 270 269 267 265 265 264 262 262 263 263 264 263 263 263 263 262 263 263 263 263 264 266 266 259 251 246 247 251 253 249 246 250 256 257 253 252 256 254 242 231 226 223 220 222 225 231 240 249 258 265 268 271 269 265 267 272 277 282 285 287 289 292 296 299 301 304 306 307 306
285 281 281 282 281 280 281 282 284 285 283 279 277 278 279 278 275 273 270 268 267 266 264 264 265 265 265 265 265 265 264 263 263 261 259 260 262 264 260 254 251 248 243 242 247 248 250 255 260 260 258 254 247 235 221 214 214 215 217 223 233 241 247 255 263 266 267 269 270 269 271 277 284 289 292 296 302 309 314 315 314 314 315 315 314
284 283 281 281 279 278 278 280 284 287 288 285 283 280 279 278 276 273 272 270 269 266 265 264 264 265 264 263 263 263 263 263 262 260 259 260 259 256 253 253 255 251 240 238 245 253 259 261 261 258 253 240 222 210 206 205 207 211 217 224 232 239 246 252 257 261 266 271 275 281 288 294 298 301 306 314 320 323 323 319 317 316 317 318 317
283 284 284 283 284 286 287 287 288 288 285 283 283 281 279 278 275 272 272 271 269 266 265 264 263 264 264 262 262 262 262 260 258 259 260 259 257 255 256 258 255 244 238 244 251 257 261 258 249 242 232 213 199 196 195 196 202 207 209 213 220 232 245 253 260 269 276 284 292 298 300 301 306 316 324 326 325 323 317 313 311 309 307 306 306
286 290 292 293 295 297 295 292 292 291 287 282 280 279 277 276 274 271 270 270 268 266 265 264 262 262 261 261 260 259 260 262 261 258 257 257 258 256 253 251 245 240 243 253 253 248 246 237 226 221 210 193 186 186 188 192 201 203 204 213 231 252 264 273 283 288 292 296 299 299 301 310 324 328 320 310 306 303 300 298 300 299 298 298 297
296 300 299 298 298 297 295 291 288 288 286 283 280 279 277 275 272 270 268 267 265 264 263 262 261 260 259 258 258 257 258 259 258 256 254 254 253 250 247 246 247 248 252 255 241 224 213 208 206 203 193 182 179 181 185 188 189 190 203 226 245 258 267 276 285 290 295 300 298 300 323 341 331 310 300 296 293 293 294 295 297 299 299 299 300
298 299 298 298 296 294 292 291 289 288 287 284 281 280 277 275 272 269 267 265 263 261 260 259 258 257 255 255 255 255 253 251 251 252 252 247 241 239 243 250 257 256 246 231 219 208 200 194 186 178 176 180 181 177 175 175 177 185 201 219 237 253 268 284 303 314 314 309 314 341 351 334 313 301 301 303 302 302 302 302 303 304 304 304 305
295 297 298 298 297 296 295 295 293 292 290 286 284 282 279 276 274 270 266 263 262 260 259 257 255 253 251 249 249 249 249 246 243 241 240 238 233 229 232 245 258 247 206 189 189 191 189 186 180 172 172 178 175 167 164 167 174 186 204 243 261 274 288 311 345 357 350 340 355 5 341 316 308 310 310 309 307 306 305 307 309 309 310 309 308
Height
1480 1481 1482 1483 1484 1486 1489 1490 1492 1496 1498 1497 1497 1497 1497 1498 1499 1500 1501 1502 1503 1504 1506 1507 1509 1510 1511 1512 1513 1513 1514 1514 1514 1514 1515 1515 1515 1516 1516 1516 1516 1517 1518 1518 1519 1520 1520 1519 1520 1521 1521 1522 1522 1523 1525 1526 1526 1527 1528 1529 1531 1531 1532 1532 1532 1534 1536 1536 1537 1538 1538 1539 1539 1540 1541 1541 1542 1543 1543 1543 1544 1545 1545 1546 1547
1477 1478 1480 1481 1482 1485 1488 1488 1491 1496 1499 1498 1498 1497 1497 1498 1498 1499 1500 1502 1503 1504 1506 1508 1509 1510 1511 1512 1513 1513 1514 1514 1514 1514 1514 1515 1515 1515 1515 1516 1517 1517 1517 1518 1519 1520 1520 1519 1519 1520 1521 1521 1522 1522 1523 1524 1525 1526 1526 1527 1528 1529 1530 1531 1531 1532 1533 1534 1535 1535 1536 1537 1538 1539 1540 1541 1541 1542 1542 1543 1543 1544 1544 1544 1545
1473 1475 1477 1479 1481 1484 1486 1486 1489 1496 1499 1499 1498 1498 1497 1497 1498 1499 1500 1501 1503 1504 1505 1506 1508 1509 1511 1512 1512 1513 1514 1514 1514 1514 1515 1515 1515 1515 1516 1516 1517 1517 1518 1518 1518 1519 1520 1520 1520 1520 1520 1521 1521 1522 1522 1523 1523 1524 1525 1526 1526 1527 1528 1528 1529 1530 1531 1533 1533 1533 1534 1536 1537 1538 1539 1540 1540 1541 1541 1542 1543 1543 1544 1544 1544
1471 1472 1475 1477 1479 1482 1486 1486 1488 1494 1498 1498 1498 1497 1497 1497 1497 1498 1499 1500 1502 1503 1504 1505 1507 1508 1509 1511 1511 1512 1513 1514 1515 1515 1516 1516 1516 1516 1516 1516 1517 1517 1518 1518 1518 1518 1519 1520 1520 1520 1520 1521 1521 1522 1522 1523 1523 1523 1523 1524 1525 1526 1526 1526 1527 1528 1530 1531 1532 1533 1534 1535 1536 1537 1538 1539 1539 1539 1540 1541 1541 1542 1542 1542 1543
1468 1470 1473 1476 1478 1482 1486 1488 1489 1492 1497 1498 1497 1496 1496 1496 1496 1497 1498 1500 1501 1502 1503 1505 1506 1507 1509 1510 1511 1512 1513 1514 1515 1516 1516 1516 1516 1516 1516 1517 1517 1517 1517 1517 1517 1518 1519 1519 1520 1521 1520 1521 1521 1522 1522 1522 1522 1522 1522 1523 1524 1525 1525 1525 1526 1528 1529 1530 1532 1532 1533 1534 1535 1536 1537 1538 1538 1538 1539 1539 1539 1540 1540 1541 1541
1468 1470 1473 1476 1478 1482 1486 1488 1489 1491 1496 1497 1496 1496 1496 1495 1495 1496 1497 1499 1500 1502 1503 1504 1505 1507 1508 1510 1511 1512 1513 1514 1515 1516 1517 1517 1517 1517 1517 1517 1517 1517 1517 1517 1517 1518 1518 1519 1520 1520 1520 1521 1521 1522 1522 1522 1522 1522 1522 1523 1523 1524 1525 1526 1526 1528 1529 1529 1530 1531 1532 1533 1534 1535 1537 1537 1538 1538 1538 1538 1538 1538 1539 1539 1540
1468 1470 1473 1476 1478 1481 1484 1486 1488 1491 1495 1497 1496 1495 1495 1494 1494 1495 1496 1498 1499 1501 1502 1504 1505 1506 1508 1509 1511 1512 1513 1514 1515 1516 1517 1517 1517 1517 1518 1517 1517 1517 1517 1517 1517 1517 1518 1518 1519 1520 1520 1521 1521 1522 1522 1522 1522 1522 1523 1523 1524 1524 1525 1526 1527 1528 1529 1529 1530 1531 1532 1533 1534 1535 1536 1537 1537 1537 1537 1537 1537 1537 1538 1538 1539
1466 1468 1471 1474 1477 1478 1480 1482 1484 1489 1495 1496 1495 1494 1494 1493 1493 1494 1495 1497 1499 1500 1502 1503 1504 1506 1507 1509 1511 1512 1513 1514 1515 1516 1517 1517 1518 1518 1518 1518 1518 1518 1518 1518 1518 1518 1518 1518 1519 1519 1520 1521 1521 1521 1521 1522 1522 1523 1523 1524 1524 1524 1525 1526 1527 1527 1529 1530 1531 1532 1533 1533 1534 1535 1536 1536 1536 1536 1536 1536 1537 1536 1537 1537 1538
1463 1466 1468 1471 1474 1476 1477 1479 1482 1486 1492 1494 1492 1492 1492 1492 1492 1493 1495 1496 1498 1500 1502 1503 1504 1505 1506 1509 1511 1512 1512 1514 1515 1516 1517 1517 1518 1518 1519 1519 1519 1519 1519 1519 1519 1519 1518 1519 1519 1519 1520 1520 1520 1520 1521 1522 1522 1523 1523 1524 1524 1525 1526 1526 1527 1528 1529 1530 1531 1532 1533 1533 1534 1535 1535 1535 1535 1535 1535 1535 1535 1535 1536 1536 1537
1463 1465 1467 1468 1471 1474 1476 1478 1481 1484 1487 1490 1491 1491 1491 1491 1491 1492 1493 1495 1497 1499 1501 1502 1504 1505 1506 1508 1511 1511 1512 1513 1514 1515 1517 1517 1518 1519 1519 1519 1519 1519 1519 1519 1519 1519 1519 1519 1519 1520 1520 1520 1521 1521 1521 1522 1522 1523 1523 1524 1524 1525 1526 1527 1527 1528 1529 1530 1531 1532 1532 1533 1534 1534 1534 1534 1535 1535 1534 1534 1534 1534 1535 1535 1536
1462 1465 1466 1467 1470 1472 1475 1477 1480 1482 1482 1486 1490 1490 1488 1489 1490 1491 1492 1494 1496 1498 1500 1502 1503 1504 1505 1508 1510 1510 1511 1513 1514 1515 1516 1517 1518 1519 1519 1520 1520 1520 1520 1520 1520 1520 1521 1521 1521 1521 1521 1521 1521 1522 1522 1523 1523 1523 1524 1524 1525 1525 1526 1527 1527 1528 1529 1530 1530 1531 1531 1532 1533 1533 1533 1534 1534 1534 1534 1534 1534 1534 1534 1535 1535
1463 1465 1466 1468 1471 1472 1474 1475 1477 1478 1478 1482 1487 1488 1487 1487 1488 1489 1491 1492 1495 1497 1499 1501 1502 1504 1505 1507 1509 1510 1511 1512 1513 1515 1516 1517 1518 1519 1519 1520 1520 1521 1521 1521 1521 1521 1522 1522 1522 1522 1522 1522 1522 1523 1523 1523 1524 1524 1524 1525 1525 1525 1526 1527 1527 1528 1528 1529 1530 1531 1531 1531 1531 1532 1532 1533 1533 1533 1533 1533 1534 1534 1534 1534 1534
1464 1466 1468 1469 1471 1472 1473 1473 1474 1475 1476 1479 1483 1486 1486 1487 1487 1488 1489 1490 1493 1495 1498 1500 1501 1503 1504 1506 1508 1509 1510 1512 1513 1514 1516 1517 1518 1519 1519 1520 1520 1521 1521 1522 1522 1522 1522 1523 1523 1523 1523 1524 1524 1524 1524 1524 1524 1525 1525 1525 1526 1526 1526 1527 1527 1528 1528 1529 1529 1530 1531 1531 1531 1532 1532 1532 1532 1532 1533 1533 1533 1534 1533 1533 1534
1466 1467 1470 1471 1471 1471 1472 1472 1473 1474 1476 1479 1481 1484 1485 1487 1488 1488 1488 1489 1491 1494 1496 1498 1500 1502 1503 1505 1507 1508 1510 1511 1512 1514 1515 1517 1518 1519 1520 1520 1520 1521 1521 1522 1522 1523 1523 1523 1524 1524 1524 1525 1525 1525 1525 1525 1525 1525 1526 1526 1527 1527 1527 1528 1528 1528 1529 1529 1529 1530 1530 1531 1531 1531 1531 1531 1532 1532 1532 1532 1532 1533 1533 1533 1533
1468 1469 1471 1471 1471 1471 1471 1472 1473 1474 1476 1479 1481 1483 1484 1486 1488 1489 1489 1489 1490 1492 1495 1497 1499 1501 1502 1504 1506 1508 1509 1511 1513 1514 1515 1517 1518 1519 1520 1521 1521 1521 1521 1522 1523 1523 1524 1524 1524 1524 1525 1525 1525 1526 1526 1526 1526 1526 1526 1527 1527 1527 1528 1528 1529 1529 1529 1530 1530 1530 1530 1531 1531 1531 1531 1531 1531 1531 1531 1532 1532 1532 1532 1532 1532
1469 1470 1470 1470 1470 1471 1471 1472 1473 1475 1477 1479 1481 1482 1484 1485 1487 1488 1490 1490 1490 1492 1494 1496 1498 1500 1501 1504 1506 1507 1509 1511 1513 1514 1515 1517 1519 1519 1521 1522 1522 1521 1521 1522 1523 1523 1524 1524 1525 1525 1525 1525 1526 1526 1526 1526 1526 1527 1527 1527 1527 1527 1528 1528 1529 1529 1529 1530 1530 1530 1530 1531 1531 1531 1531 1531 1532 1531 1531 1532 1532 1532 1532 1532 1532
1469 1470 1470 1470 1470 1471 1471 1472 1474 1475 1477 1479 1480 1482 1483 1485 1486 1487 1489 1490 1491 1492 1493 1495 1497 1499 1501 1503 1505 1507 1508 1510 1512 1514 1515 1517 1519 1520 1521 1522 1522 1522 1522 1522 1523 1523 1524 1524 1525 1525 1525 1525 1526 1526 1526 1527 1527 1527 1527 1527 1527 1528 1528 1528 1528 1529 1529 1529 1530 1530 1530 1531 1531 1531 1531 1532 1532 1532 1532 1532 1532 1532 1532 1532 1532
1470 1470 1471 1471 1471 1472 1472 1473 1475 1476 1477 1479 1480 1481 1482 1484 1485 1487 1488 1489 1490 1492 1493 1495 1497 1498 1500 1503 1505 1507 1509 1511 1513 1515 1516 1517 1519 1520 1521 1522 1523 1523 1522 1523 1524 1524 1524 1524 1524 1525 1525 1525 1526 1526 1526 1526 1526 1527 1527 1527 1527 1528 1528 1528 1529 1529 1529 1530 1530 1530 1530 1530 1531 1531 1531 1531 1531 1531 1531 1531 1532 1532 1532 1532 1532
1471 1471 1472 1472 1472 1473 1473 1474 1475 1476 1478 1479 1480 1481 1482 1484 1485 1486 1487 1488 1489 1490 1492 1495 1496 1498 1500 1502 1505 1507 1509 1511 1513 1515 1516 1517 1519 1520 1521 1522 1522 1523 1522 1522 1523 1524 1524 1524 1524 1524 1525 1525 1525 1525 1526 1526 1526 1526 1526 1527 1527 1527 1528 1528 1528 1529 1529 1529 1530 1530 1530 1530 1530 1530 1530 1530 1530 1530 1531 1531 1531 1531 1532 1532 1532
1471 1472 1473 1473 1473 1474 1474 1476 1476 1477 1479 1479 1481 1482 1482 1484 1485 1486 1487 1487 1488 1489 1491 1494 1496 1498 1500 1502 1505 1507 1509 1511 1512 1514 1515 1517 1519 1521 1522 1522 1522 1523 1522 1522 1522 1523 1523 1524 1524 1524 1524 1525 1525 1525 1525 1525 1525 1526 1526 1526 1526 1527 1527 1527 1528 1528 1529 1529 1529 1530 1530 1530 1530 1530 1530 1530 1530 1530 1530 1531 1531 1531 1531 1531 1531
1471 1472 1473 1474 1474 1475 1475 1477 1477 1477 1479 1481 1482 1483 1484 1485 1486 1486 1487 1487 1488 1489 1492 1494 1497 1499 1501 1503 1505 1507 1509 1510 1511 1512 1514 1515 1518 1520 1522 1523 1523 1522 1522 1522 1522 1522 1522 1522 1523 1523 1523 1524 1524 1524 1525 1525 1525 1525 1525 1525 1525 1526 1526 1526 1527 1527 1528 1528 1528 1528 1529 1529 1530 1530 1530 1530 1530 1530 1530 1530 1531 1531 1531 1531 1531
1472 1473 1474 1475 1475 1476 1477 1477 1477 1478 1479 1480 1481 1482 1483 1485 1486 1486 1487 1488 1489 1492 1494 1496 1497 1498 1499 1501 1503 1505 1507 1509 1510 1511 1512 1513 1516 1519 1521 1523 1523 1522 1522 1521 1521 1521 1522 1522 1522 1522 1522 1522 1523 1523 1524 1524 1524 1524 1524 1524 1524 1525 1525 1525 1525 1526 1526 1527 1527 1527 1528 1528 1528 1529 1529 1529 1529 1529 1530 1530 1531 1531 1531 1531 1530
1473 1473 1474 1476 1476 1477 1478 1478 1478 1479 1480 1481 1481 1482 1483 1484 1484 1485 1485 1486 1489 1491 1493 1495 1496 1498 1499 1500 1501 1503 1504 1506 1509 1510 1510 1511 1514 1516 1519 1521 1522 1522 1522 1521 1520 1520 1521 1522 1522 1522 1522 1522 1521 1521 1522 1522 1523 1523 1523 1523 1523 1524 1524 1524 1524 1525 1525 1525 1526 1526 1526 1526 1527 1527 1527 1528 1528 1528 1528 1528 1529 1529 1529 1529 1528
1474 1475 1475 1476 1477 1478 1479 1479 1480 1481 1482 1482 1483 1484 1485 1485 1485 1484 1483 1484 1487 1489 1491 1492 1494 1497 1499 1500 1501 1502 1503 1504 1506 1508 1508 1509 1511 1513 1516 1519 1520 1520 1520 1520 1520 1519 1519 1520 1520 1521 1522 1522 1521 1521 1521 1521 1522 1522 1522 1522 1522 1522 1523 1523 1523 1523 1523 1523 1524 1524 1525 1525 1525 1526 1526 1526 1526 1526 1526 1527 1527 1527 1527 1526 1526
1475 1476 1476 1477 1478 1479 1480 1481 1481 1482 1483 1484 1485 1486 1486 1487 1487 1486 1485 1485 1486 1489 1490 1491 1491 1494 1497 1498 1499 1501 1502 1503 1503 1504 1505 1506 1508 1509 1512 1516 1517 1517 1518 1519 1518 1517 1516 1516 1517 1519 1520 1521 1521 1520 1520 1520 1521 1521 1521 1521 1521 1521 1522 1521 1521 1522 1522 1522 1522 1523 1523 1523 1524 1524 1524 1525 1525 1525 1525 1525 1525 1525 1525 1524 1524
1476 1476 1477 1478 1478 1479 1480 1481 1482 1483 1484 1485 1486 1487 1487 1487 1487 1487 1487 1487 1488 1490 1491 1491 1491 1492 1495 1497 1497 1498 1500 1502 1501 1501 1502 1504 1505 1506 1508 1511 1512 1512 1514 1516 1516 1515 1514 1514 1515 1517 1519 1519 1520 1520 1519 1519 1519 1521 1521 1521 1520 1521 1521 1520 1520 1520 1521 1521 1521 1521 1522 1522 1522 1522 1522 1523 1523 1523 1523 1523 1523 1523 1522 1522 1522
1476 1477 1478 1478 1479 1480 1481 1482 1483 1484 1485 1486 1487 1487 1487 1487 1487 1487 1488 1488 1490 1490 1491 1491 1491 1491 1494 1496 1497 1498 1499 1500 1500 1499 1500 1501 1503 1505 1505 1506 1507 1508 1509 1511 1511 1511 1512 1513 1514 1516 1517 1518 1518 1519 1519 1518 1518 1519 1520 1519 1519 1520 1520 1519 1519 1519 1519 1519 1519 1520 1520 1520 1521 1521 1521 1521 1521 1521 1521 1521 1521 1520 1520 1520 1519
1476 1477 1479 1478 1479 1480 1481 1482 1483 1484 1485 1486 1486 1487 1487 1487 1487 1487 1488 1488 1490 1491 1491 1491 1491 1492 1494 1495 1497 1497 1498 1498 1499 1498 1499 1500 1502 1503 1504 1504 1505 1505 1506 1507 1507 1508 1509 1510 1512 1515 1516 1515 1516 1516 1517 1518 1518 1518 1518 1517 1517 1517 1517 1518 1517 1517 1517 1517 1517 1518 1518 1518 1519 1519 1519 1519 1519 1519 1519 1519 1519 1518 1518 1518 1517
1476 1477 1479 1479 1480 1480 1481 1482 1483 1484 1485 1485 1486 1486 1487 1487 1487 1487 1488 1488 1489 1490 1491 1492 1492 1493 1495 1496 1496 1497 1497 1497 1497 1498 1499 1499 1500 1501 1502 1503 1503 1504 1505 1505 1505 1505 1506 1506 1508 1510 1513 1513 1513 1512 1512 1514 1516 1517 1517 1515 1515 1515 1515 1516 1516 1515 1515 1515 1515 1516 1516 1516 1517 1517 1518 1518 1517 1517 1517 1517 1517 1516 1515 1515 1515
1476 1477 1479 1480 1481 1481 1481 1482 1482 1483 1484 1485 1486 1486 1486 1487 1487 1487 1488 1488 1489 1490 1491 1492 1493 1493 1494 1495 1496 1496 1496 1497 1497 1498 1499 1499 1500 1501 1501 1502 1502 1502 1503 1503 1503 1504 1504 1504 1505 1507 1509 1510 1510 1510 1509 1510 1512 1514 1515 1514 1513 1513 1514 1514 1514 1514 1514 1513 1513 1514 1514 1514 1515 1515 1516 1515 1515 1515 1515 1514 1514 1513 1513 1512 1512
1474 1476 1479 1481 1483 1483 1482 1482 1482 1483 1483 1484 1485 1486 1486 1486 1487 1487 1488 1488 1489 1489 1490 1491 1492 1493 1493 1494 1495 1495 1496 1496 1497 1498 1498 1499 1500 1500 1501 1501 1501 1501 1501 1501 1501 1501 1502 1502 1503 1504 1506 1506 1507 1507 1507 1507 1509 1511 1512 1511 1510 1511 1512 1512 1512 1512 1512 1512 1512 1512 1511 1512 1512 1513 1513 1513 1513 1513 1512 1512 1511 1510 1510 1510 1509
1472 1474 1476 1479 1482 1483 1484 1483 1483 1484 1484 1484 1485 1485 1486 1486 1486 1487 1487 1487 1488 1489 1490 1491 1491 1492 1493 1493 1494 1495 1495 1496 1496 1497 1498 1498 1498 1499 1499 1500 1500 1499 1499 1499 1499 1500 1500 1501 1501 1501 1502 1502 1502 1503 1504 1505 1506 1508 1509 1508 1507 1508 1509 1510 1510 1510 1510 1510 1510 1510 1510 1509 1509 1509 1510 1510 1510 1510 1509 1509 1508 1508 1507 1506 1506
1471 1472 1475 1477 1480 1482 1484 1484 1484 1485 1485 1485 1485 1485 1485 1484 1485 1486 1486 1487 1488 1488 1489 1490 1490 1491 1492 1492 1493 1493 1494 1495 1495 1496 1496 1496 1497 1497 1497 1497 1497 1498 1498 1498 1498 1498 1498 1499 1499 1499 1499 1498 1498 1499 1500 1502 1503 1505 1506 1505 1505 1505 1506 1507 1508 1508 1509 1509 1508 1509 1508 1508 1507 1507 1507 1507 1506 1506 1506 1505 1505 1504 1504 1503 1503
1471 1473 1475 1476 1477 1480 1483 1484 1484 1485 1485 1484 1485 1484 1484 1484 1485 1485 1486 1487 1487 1488 1489 1489 1489 1490 1491 1491 1492 1492 1493 1493 1494 1494 1494 1494 1495 1495 1495 1495 1495 1495 1496 1496 1496 1496 1496 1497 1496 1496 1496 1495 1495 1496 1498 1499 1500 1502 1503 1502 1502 1503 1503 1505 1506 1506 1507 1507 1507 1507 1507 1506 1506 1506 1505 1505 1504 1504 1503 1503 1502 1501 1500 1500 1499
1471 1473 1475 1474 1475 1479 1482 1484 1485 1485 1485 1485 1485 1484 1484 1484 1484 1485 1485 1486 1486 1487 1488 1488 1489 1489 1490 1490 1491 1491 1491 1492 1492 1492 1492 1492 1493 1492 1492 1493 1493 1493 1494 1494 1494 1494 1494 1494 1494 1494 1494 1493 1493 1494 1495 1497 1497 1499 1500 1500 1500 1501 1501 1503 1504 1504 1504 1505 1505 1505 1505 1505 1505 1504 1504 1503 1503 1502 1502 1500 1499 1498 1497 1497 1496
1472 1475 1475 1475 1476 1479 1482 1483 1484 1484 1485 1485 1485 1484 1484 1484 1484 1484 1484 1485 1485 1486 1487 1487 1487 1488 1488 1489 1489 1490 1490 1490 1490 1491 1491 1491 1491 1491 1491 1491 1491 1491 1492 1492 1492 1492 1492 1492 1491 1491 1491 1490 1490 1492 1493 1494 1495 1496 1497 1497 1498 1499 1499 1500 1501 1501 1502 1502 1503 1503 1503 1503 1503 1502 1501 1500 1500 1500 1499 1498 1496 1495 1494 1493 1492
1472 1474 1475 1475 1478 1480 1481 1483 1483 1484 1485 1485 1484 1484 1483 1483 1483 1483 1483 1484 1484 1485 1486 1486 1486 1486 1487 1487 1487 1488 1488 1488 1489 1489 1489 1489 1489 1489 1489 1489 1489 1490 1490 1489 1490 1489 1489 1489 1489 1489 1488 1487 1488 1489 1490 1491 1492 1493 1494 1494 1495 1496 1497 1498 1499 1499 1500 1501 1501 1501 1501 1500 1500 1499 1498 1498 1498 1497 1496 1495 1493 1492 1490 1489 1488
1474 1475 1476 1477 1479 1480 1482 1483 1483 1484 1484 1483 1483 1483 1482 1482 1482 1482 1482 1483 1483 1484 1484 1485 1485 1485 1485 1485 1486 1486 1486 1487 1487 1487 1487 1487 1487 1487 1487 1487 1487 1487 1487 1487 1487 1487 1487 1487 1486 1486 1485 1485 1486 1487 1487 1489 1490 1491 1491 1491 1492 1494 1495 1496 1497 1498 1498 1499 1499 1499 1499 1498 1497 1496 1496 1495 1495 1494 1493 1491 1490 1488 1487 1485 1484
1475 1477 1478 1478 1479 1480 1481 1481 1482 1483 1482 1482 1482 1482 1481 1481 1481 1481 1481 1481 1481 1482 1483 1483 1483 1484 1484 1484 1484 1484 1484 1484 1484 1485 1485 1485 1485 1485 1485 1485 1485 1485 1485 1485 1485 1485 1485 1484 1483 1483 1482 1483 1484 1485 1485 1486 1487 1488 1489 1490 1491 1492 1493 1494 1495 1496 1497 1497 1498 1497 1497 1496 1495 1494 1493 1492 1491 1491 1490 1489 1487 1485 1483 1482 1481
1476 1477 1478 1477 1477 1478 1479 1480 1481 1481 1481 1481 1481 1480 1479 1479 1479 1479 1479 1479 1480 1480 1480 1481 1481 1481 1481 1481 1481 1481 1481 1482 1482 1482 1482 1482 1482 1482 1482 1482 1482 1482 1483 1483 1483 1482 1481 1480 1480 1480 1480 1481 1482 1483 1483 1484 1485 1486 1487 1488 1489 1490 1491 1492 1493 1494 1495 1495 1496 1495 1494 1493 1493 1491 1491 1490 1489 1488 1487 1485 1484 1482 1480 1479 1477
1477 1477 1477 1476 1477 1477 1478 1479 1479 1479 1479 1479 1479 1478 1477 1477 1477 1477 1477 1477 1477 1478 1478 1478 1478 1479 1479 1479 1479 1479 1479 1479 1479 1480 1480 1480 1480 1480 1480 1480 1480 1480 1480 1480 1479 1478 1478 1477 1477 1478 1479 1480 1480 1481 1481 1482 1483 1484 1485 1486 1487 1488 1489 1490 1491 1492 1493 1493 1493 1492 1491 1490 1490 1489 1488 1487 1486 1485 1484 1482 1481 1479 1477 1475 1473
1477 1477 1476 1476 1476 1476 1477 1477 1477 1477 1477 1477 1476 1476 1475 1475 1475 1474 1474 1475 1475 1475 1475 1475 1475 1476 1476 1476 1476 1476 1476 1476 1476 1477 1476 1476 1476 1477 1477 1477 1477 1478 1477 1476 1475 1475 1475 1475 1475 1476 1477 1478 1478 1479 1479 1480 1481 1482 1483 1484 1485 1487 1488 1489 1490 1490 1491 1491 1491 1490 1488 1487 1487 1486 1485 1484 1483 1482 1480 1478 1477 1475 1473 1471 1469
1476 1476 1476 1476 1475 1475 1474 1474 1474 1474 1474 1474 1474 1474 1473 1473 1472 1472 1472 1472 1472 1472 1472 1472 1472 1473 1472 1473 1473 1472 1472 1473 1473 1473 1473 1473 1473 1473 1474 1474 1475 1475 1473 1472 1472 1473 1473 1473 1473 1474 1475 1476 1477 1477 1478 1479 1480 1481 1481 1482 1484 1486 1487 1487 1488 1488 1488 1488 1489 1488 1486 1484 1483 1483 1483 1481 1480 1478 1476 1474 1472 1471 1469 1467 1465
1474 1474 1474 1474 1473 1472 1472 1472 1472 1471 1471 1471 1471 1471 1470 1470 1470 1470 1470 1470 1469 1469 1469 1469 1469 1469 1469 1469 1469 1469 1469 1470 1470 1470 1470 1470 1470 1471 1471 1471 1472 1472 1471 1470 1469 1470 1471 1471 1471 1471 1473 1474 1475 1476 1477 1477 1478 1479 1480 1481 1483 1484 1485 1486 1486 1486 1486 1486 1486 1485 1483 1482 1481 1481 1480 1479 1477 1475 1473 1471 1469 1468 1466 1464 1462
1471 1471 1471 1471 1470 1469 1469 1469 1468 1468 1468 1468 1468 1468 1467 1466 1467 1467 1467 1467 1466 1466 1466 1465 1465 1465 1465 1466 1466 1466 1466 1466 1467 1467 1467 1467 1468 1468 1468 1468 1468 1469 1469 1469 1468 1468 1469 1469 1469 1470 1471 1473 1474 1474 1475 1476 1477 1478 1479 1481 1482 1483 1483 1484 1484 1483 1483 1483 1482 1482 1481 1480 1480 1479 1477 1475 1474 1472 1470 1469 1467 1466 1464 1462 1461
1468 1468 1468 1468 1467 1466 1466 1465 1465 1465 1465 1465 1465 1465 1464 1463 1464 1464 1464 1464 1463 1463 1462 1462 1462 1462 1462 1463 1463 1463 1463 1464 1464 1464 1464 1465 1465 1464 1464 1465 1466 1466 1467 1467 1466 1466 1467 1467 1468 1468 1470 1471 1472 1473 1474 1475 1476 1478 1479 1480 1480 1481 1481 1481 1481 1481 1480 1480 1479 1479 1478 1478 1476 1475 1474 1472 1471 1469 1468 1467 1466 1464 1463 1461 1460
1466 1465 1465 1464 1463 1462 1462 1461 1461 1462 1462 1462 1462 1461 1461 1460 1460 1460 1460 1460 1460 1459 1459 1459 1459 1459 1459 1459 1460 1460 1460 1460 1461 1461 1461 1462 1461 1460 1461 1462 1463 1464 1464 1464 1464 1464 1465 1466 1466 1467 1468 1470 1470 1472 1473 1475 1476 1477 1477 1478 1479 1479 1479 1479 1479 1478 1478 1478 1477 1476 1476 1475 1474 1473 1472 1471 1469 1468 1467 1466 1464 1463 1462 1460 1459
1462 1462 1461 1460 1460 1459 1459 1459 1459 1459 1459 1459 1458 1458 1458 1457 1457 1457 1457 1456 1456 1455 1455 1455 1455 1456 1456 1456 1456 1456 1457 1457 1457 1457 1458 1458 1457 1457 1458 1460 1461 1461 1462 1461 1461 1461 1462 1464 1464 1465 1467 1469 1470 1471 1473 1474 1475 1476 1476 1477 1477 1477 1477 1477 1477 1477 1476 1475 1475 1474 1474 1473 1472 1472 1471 1470 1468 1467 1465 1464 1463 1461 1460 1459 1457
1459 1459 1458 1457 1457 1457 1457 1457 1456 1456 1456 1455 1455 1454 1454 1454 1453 1453 1453 1452 1451 1451 1451 1451 1451 1452 1452 1453 1453 1453 1454 1454 1454 1453 1454 1455 1455 1455 1456 1457 1458 1459 1459 1459 1459 1460 1461 1462 1464 1465 1466 1468 1469 1471 1472 1473 1474 1475 1475 1476 1476 1476 1476 1476 1475 1475 1474 1474 1473 1472 1472 1471 1471 1470 1469 1467 1466 1464 1463 1462 1461 1459 1458 1456 1455
1457 1456 1456 1456 1455 1455 1455 1454 1454 1454 1453 1452 1451 1451 1450 1449 1449 1448 1448 1448 1447 1447 1447 1447 1447 1448 1448 1449 1449 1449 1450 1451 1450 1450 1451 1452 1452 1452 1453 1454 1455 1456 1457 1458 1459 1459 1460 1462 1463 1465 1467 1468 1470 1471 1472 1473 1474 1474 1475 1475 1475 1475 1475 1475 1475 1474 1473 1472 1471 1470 1470 1470 1469 1468 1466 1465 1464 1462 1461 1460 1458 1457 1455 1454 1452
1455 1455 1455 1454 1453 1453 1452 1451 1451 1450 1449 1448 1447 1446 1445 1445 1444 1444 1443 1443 1443 1443 1442 1442 1443 1444 1444 1445 1446 1446 1446 1447 1447 1447 1448 1449 1449 1450 1451 1452 1453 1455 1456 1457 1458 1459 1461 1463 1465 1466 1468 1469 1470 1471 1472 1473 1474 1474 1474 1475 1475 1474 1474 1474 1474 1473 1472 1471 1470 1469 1469 1469 1467 1466 1465 1463 1462 1460 1459 1457 1456 1454 1453 1451 1449